Location: Seattle
(47.6064°N, 122.3308°W)
Time: 21:13:26
(UTC-07:00)

S-56A Canister/Altair - Pass Details

Date: 31 July 2021
Orbit: 632 x 2500 km, 38.9° (Epoch: 24 September)

Event Time Altitude Azimuth Distance (km) Brightness Sun altitude
Rises 22:41:23 0° 282° (WNW) 6,159 13.0 -15.9°
Reaches altitude 10° 22:46:47 10° 270° (W) 5,034 12.2 -16.4°
Maximum altitude 22:56:20 22° 227° (SW) 3,713 10.9 -17.4°
Enters shadow 23:03:36 12° 186° (S) 4,008 10.7 -18.1°
